Location: Theydon Bois
(51.6750°N, 0.1050°E)
Time: 15:07:53
(UTC+01:00)

BREEZE M DEB (TANK) - Visible Passes

Search period start: 20 September 2018 00:00
Search period end: 30 September 2018 00:00
Orbit: 339 x 16165 km, 49.5° (Epoch: 19 September)

Date Brightness Start Highest point End Pass type
(mag) Time Alt. Az. Time Alt. Az. Time Alt. Az.
20 Sep 6.3 02:09:20 48° SW 02:19:21 77° SSE 04:30:56 10° E visible
20 Sep 7.2 21:43:26 14° E 21:48:04 15° ENE 22:07:36 10° NE visible
21 Sep 6.5 02:36:57 41° WSW 02:50:01 82° SSE 05:12:35 10° ESE visible
21 Sep 7.0 22:11:04 21° E 22:14:14 22° E 22:45:35 10° NE visible
22 Sep 6.7 03:04:35 34° WSW 03:21:25 85° SSE 05:51:53 10° ESE visible
22 Sep 6.8 22:38:40 29° ESE 22:40:49 29° E 23:23:14 10° NE visible
23 Sep 6.9 03:32:12 27° W 03:53:36 86° S 06:28:52 10° ESE visible
23 Sep 6.6 23:06:17 37° ESE 23:07:52 37° ESE 00:01:36 10° NE visible
24 Sep 7.0 03:59:48 20° W 04:26:34 86° S 07:03:48 10° SE visible
24 Sep 6.4 23:33:52 46° ESE 23:35:27 46° ESE 00:41:21 10° ENE visible
25 Sep 7.2 04:27:23 14° W 05:00:14 85° SSW 07:36:59 10° SE visible
26 Sep 6.3 00:01:28 54° SE 00:03:35 55° ESE 01:22:56 10° ENE visible
26 Sep 7.4 04:55:20 10° W 05:34:27 82° SSW 08:08:41 10° SSE visible
27 Sep 6.2 00:29:02 60° SSE 00:32:17 64° SE 02:06:21 10° ENE visible
27 Sep 7.5 05:24:35 10° WNW 06:08:49 78° SSW 08:39:05 10° SSE visible
28 Sep 6.2 00:56:37 61° SSW 01:01:34 72° SE 02:50:57 10° E visible
28 Sep 7.6 05:53:56 10° WNW 06:42:51 73° SW 09:08:17 10° SSE visible
29 Sep 6.3 01:24:10 57° SW 01:31:27 78° SSE 03:35:18 10° E visible
29 Sep 7.7 06:23:24 10° WNW 07:16:11 68° SW 09:36:19 10° S visible
29 Sep 7.2 20:58:12 15° E 20:59:36 15° E 21:15:56 10° NE visible
